Find Starlink 32294

NORAD ID: 61675 Int'l Des: 2024-193 Owner: SPXS Country: US Constellation: starlink operational
LEOCIRCULAR

Live Position

Loading 3D Globe...

About Starlink 32294

Description loading...

Upcoming Passes

Passes for default location (London). Set your location on the main map for personalized predictions.

Altitude History

Loading altitude history...

Two-Line Element Set

1 61675U 24193Q 26123.51410883 .00000973 00000-0 44971-4 0 9996
2 61675 53.1604 196.1294 0001231 84.3182 275.7959 15.30190334 84927
Epoch: May 3, 2026 • Age: 8 hours

Current Status

Altitude 479.2 km
Velocity 7.63 km/s
Sub-Earth Point -14.02°S, 20.67°E
Launch Date Oct 26, 2024
Age 1.5 years
Type internet

Technical Details

Classification Payload
Mass 730.00 kg
Dry Mass 700.00 kg
Total Mass 730.00 kg
Length 0.30 m
Diameter 4.10 m
Span 29.00 m
Shape Box + pan
Manufacturer SPXS
Bus Type Starlink V2M
Phase Status In Orbit
Owner/State SPXS/US

Most Searched